When you browse on this site, cookies collect data to enhance your experience and personalize the content and advertising you see.
Visit our Privacy Policy to learn more. By continuing to use the site, you agree to this use of cookies and data.
  • en France
  • Liste des pays
  • À 7 jours
  • Température de l'eau
  • Carte météo
  • Widgets météo
  • user-avatar
    Se connecter

    Météo par heure à Wilson

    Ce jour, 29 Mai, Vendredi

    Heure Température Précipitation Vent Pression Humidité
    00:00 +25°C° 0 mm 4 m/s 760 mmHg 89%
    01:00 +25°C° 0 mm 4 m/s 760 mmHg 91%
    02:00 +23°C° 0.1 mm 4 m/s 760 mmHg 92%
    03:00 +24°C° 0.1 mm 3 m/s 759 mmHg 94%
    04:00 +24°C° 0.1 mm 3 m/s 759 mmHg 96%
    05:00 +25°C° 0.4 mm 3 m/s 759 mmHg 94%
    06:00 +25°C° 0.4 mm 4 m/s 760 mmHg 92%
    07:00 +26°C° 0.4 mm 4 m/s 760 mmHg 90%
    08:00 +27°C° 0.9 mm 4 m/s 760 mmHg 85%
    09:00 +28°C° 0.9 mm 3 m/s 760 mmHg 79%
    10:00 +29°C° 0.9 mm 3 m/s 759 mmHg 74%
    11:00 +28°C° 2.4 mm 4 m/s 759 mmHg 78%
    12:00 +27°C° 2.4 mm 4 m/s 759 mmHg 82%
    13:00 +26°C° 2.4 mm 5 m/s 759 mmHg 86%
    14:00 +26°C° 0.2 mm 4 m/s 759 mmHg 84%
    15:00 +26°C° 0.2 mm 4 m/s 758 mmHg 82%
    16:00 +26°C° 0.2 mm 3 m/s 758 mmHg 80%
    17:00 +25°C° 0 mm 3 m/s 758 mmHg 83%
    18:00 +25°C° 0 mm 2 m/s 758 mmHg 86%
    19:00 +24°C° 0 mm 2 m/s 758 mmHg 89%
    20:00 +24°C° 0 mm 2 m/s 758 mmHg 91%
    21:00 +23°C° 0 mm 2 m/s 758 mmHg 93%
    22:00 +23°C° 0 mm 2 m/s 758 mmHg 94%
    23:00 +23°C° 0 mm 2 m/s 758 mmHg 95%

    Demain, 30 Mai, Samedi

    Heure Température Précipitation Vent Pression Humidité
    00:00 +21°C° 0 mm 2 m/s 758 mmHg 95%
    01:00 +21°C° 0 mm 2 m/s 757 mmHg 96%
    02:00 +21°C° 0 mm 2 m/s 757 mmHg 96%
    03:00 +21°C° 0 mm 2 m/s 757 mmHg 97%
    04:00 +21°C° 0 mm 2 m/s 756 mmHg 98%
    05:00 +21°C° 0 mm 2 m/s 756 mmHg 96%
    06:00 +23°C° 0 mm 2 m/s 757 mmHg 94%
    07:00 +23°C° 0 mm 2 m/s 757 mmHg 93%
    08:00 +25°C° 0.1 mm 2 m/s 757 mmHg 84%
    09:00 +27°C° 0.1 mm 3 m/s 756 mmHg 76%
    10:00 +28°C° 0.1 mm 3 m/s 756 mmHg 68%
    11:00 +29°C° 0 mm 2 m/s 756 mmHg 63%
    12:00 +30°C° 0 mm 2 m/s 756 mmHg 59%
    13:00 +31°C° 0 mm 2 m/s 756 mmHg 55%
    14:00 +31°C° 0.6 mm 2 m/s 755 mmHg 56%
    15:00 +31°C° 0.6 mm 2 m/s 755 mmHg 56%
    16:00 +30°C° 0.6 mm 1 m/s 755 mmHg 57%
    17:00 +29°C° 0.1 mm 1 m/s 755 mmHg 63%
    18:00 +28°C° 0.1 mm 1 m/s 755 mmHg 68%
    19:00 +26°C° 0.1 mm 1 m/s 755 mmHg 74%
    20:00 +25°C° 0.1 mm 2 m/s 756 mmHg 77%
    21:00 +24°C° 0.1 mm 2 m/s 756 mmHg 81%
    22:00 +23°C° 0.1 mm 2 m/s 756 mmHg 84%
    23:00 +23°C° 0 mm 2 m/s 756 mmHg 86%

    Après-demain, 31 Mai, Dimanche

    Heure Température Précipitation Vent Pression Humidité
    00:00 +21°C° 0 mm 3 m/s 756 mmHg 88%
    01:00 +20°C° 0 mm 3 m/s 756 mmHg 90%
    02:00 +20°C° 0 mm 3 m/s 757 mmHg 84%
    03:00 +19°C° 0 mm 4 m/s 757 mmHg 78%
    04:00 +19°C° 0 mm 5 m/s 757 mmHg 72%
    05:00 +17°C° 0 mm 5 m/s 758 mmHg 71%
    06:00 +17°C° 0 mm 6 m/s 759 mmHg 71%
    07:00 +17°C° 0 mm 6 m/s 759 mmHg 71%
    08:00 +19°C° 0 mm 6 m/s 760 mmHg 65%
    09:00 +19°C° 0 mm 6 m/s 760 mmHg 59%
    10:00 +20°C° 0 mm 6 m/s 761 mmHg 54%
    11:00 +21°C° 0 mm 5 m/s 760 mmHg 52%
    12:00 +22°C° 0 mm 5 m/s 760 mmHg 50%
    13:00 +23°C° 0 mm 4 m/s 760 mmHg 48%
    14:00 +23°C° 0 mm 4 m/s 760 mmHg 48%
    15:00 +23°C° 0 mm 4 m/s 759 mmHg 47%
    16:00 +23°C° 0 mm 4 m/s 759 mmHg 46%
    17:00 +22°C° 0 mm 3 m/s 759 mmHg 51%
    18:00 +21°C° 0 mm 3 m/s 759 mmHg 56%
    19:00 +19°C° 0 mm 2 m/s 760 mmHg 61%
    20:00 +18°C° 0 mm 2 m/s 760 mmHg 60%
    21:00 +17°C° 0 mm 2 m/s 761 mmHg 59%
    22:00 +16°C° 0 mm 2 m/s 761 mmHg 58%
    23:00 +16°C° 0 mm 2 m/s 761 mmHg 58%

    1 Juin, Lundi

    Heure Température Précipitation Vent Pression Humidité
    00:00 +15°C° 0 mm 2 m/s 761 mmHg 58%
    01:00 +14°C° 0 mm 1 m/s 761 mmHg 59%
    02:00 +14°C° 0 mm 2 m/s 762 mmHg 60%
    03:00 +13°C° 0 mm 2 m/s 762 mmHg 61%
    04:00 +13°C° 0 mm 2 m/s 762 mmHg 62%
    05:00 +14°C° 0 mm 2 m/s 763 mmHg 63%
    06:00 +14°C° 0 mm 2 m/s 763 mmHg 63%
    07:00 +14°C° 0 mm 3 m/s 764 mmHg 64%
    08:00 +17°C° 0 mm 3 m/s 764 mmHg 60%
    09:00 +19°C° 0 mm 3 m/s 764 mmHg 55%
    10:00 +21°C° 0 mm 3 m/s 765 mmHg 50%
    11:00 +22°C° 0 mm 3 m/s 764 mmHg 47%
    12:00 +23°C° 0 mm 2 m/s 764 mmHg 44%
    13:00 +24°C° 0 mm 2 m/s 764 mmHg 41%
    14:00 +25°C° 0 mm 2 m/s 763 mmHg 40%
    15:00 +25°C° 0 mm 2 m/s 763 mmHg 40%
    16:00 +25°C° 0 mm 2 m/s 763 mmHg 39%
    17:00 +24°C° 0 mm 2 m/s 763 mmHg 46%
    18:00 +22°C° 0 mm 1 m/s 763 mmHg 52%
    19:00 +21°C° 0 mm 1 m/s 763 mmHg 58%
    20:00 +20°C° 0 mm 1 m/s 763 mmHg 59%
    21:00 +19°C° 0 mm 1 m/s 764 mmHg 59%
    22:00 +17°C° 0 mm 2 m/s 764 mmHg 59%
    23:00 +16°C° 0 mm 2 m/s 764 mmHg 64%

    2 Juin, Mardi

    Heure Température Précipitation Vent Pression Humidité
    00:00 +16°C° 0 mm 2 m/s 764 mmHg 68%
    01:00 +15°C° 0 mm 2 m/s 764 mmHg 72%
    02:00 +15°C° 0 mm 2 m/s 764 mmHg 74%
    03:00 +15°C° 0 mm 2 m/s 765 mmHg 76%
    04:00 +15°C° 0 mm 2 m/s 765 mmHg 77%
    05:00 +16°C° 0 mm 2 m/s 765 mmHg 76%
    06:00 +18°C° 0 mm 1 m/s 765 mmHg 74%
    07:00 +19°C° 0 mm 1 m/s 765 mmHg 72%
    08:00 +20°C° 0 mm 2 m/s 765 mmHg 66%
    09:00 +21°C° 0 mm 2 m/s 765 mmHg 60%
    10:00 +24°C° 0 mm 3 m/s 765 mmHg 54%
    11:00 +25°C° 0 mm 3 m/s 765 mmHg 51%
    12:00 +26°C° 0 mm 3 m/s 764 mmHg 48%
    13:00 +27°C° 0 mm 4 m/s 764 mmHg 46%
    14:00 +27°C° 0 mm 4 m/s 764 mmHg 47%
    15:00 +27°C° 0 mm 4 m/s 763 mmHg 48%
    16:00 +27°C° 0 mm 4 m/s 763 mmHg 50%
    17:00 +26°C° 0 mm 3 m/s 763 mmHg 54%
    18:00 +25°C° 0 mm 3 m/s 763 mmHg 59%
    19:00 +22°C° 0 mm 3 m/s 762 mmHg 64%
    20:00 +22°C° 0 mm 3 m/s 763 mmHg 62%
    21:00 +21°C° 0 mm 4 m/s 763 mmHg 61%
    22:00 +20°C° 0 mm 4 m/s 763 mmHg 60%
    23:00 +20°C° 0 mm 5 m/s 763 mmHg 59%

    3 Juin, Mercredi

    Heure Température Précipitation Vent Pression Humidité
    00:00 +20°C° 0 mm 5 m/s 763 mmHg 59%
    01:00 +20°C° 0 mm 5 m/s 762 mmHg 58%
    02:00 +20°C° 0 mm 5 m/s 762 mmHg 58%
    03:00 +20°C° 0 mm 5 m/s 762 mmHg 58%
    04:00 +20°C° 0 mm 5 m/s 762 mmHg 59%
    05:00 +20°C° 0 mm 5 m/s 762 mmHg 62%
    06:00 +20°C° 0 mm 5 m/s 762 mmHg 65%
    07:00 +20°C° 0 mm 5 m/s 762 mmHg 68%
    08:00 +21°C° 0 mm 5 m/s 762 mmHg 67%
    09:00 +21°C° 0 mm 6 m/s 762 mmHg 66%
    10:00 +22°C° 0 mm 6 m/s 762 mmHg 65%
    11:00 +23°C° 0 mm 6 m/s 762 mmHg 62%
    12:00 +26°C° 0 mm 6 m/s 761 mmHg 60%
    13:00 +27°C° 0 mm 7 m/s 761 mmHg 57%
    14:00 +27°C° 0 mm 6 m/s 760 mmHg 58%
    15:00 +28°C° 0 mm 6 m/s 760 mmHg 58%
    16:00 +28°C° 0 mm 6 m/s 759 mmHg 59%
    17:00 +27°C° 0 mm 5 m/s 759 mmHg 63%
    18:00 +26°C° 0 mm 5 m/s 759 mmHg 68%
    19:00 +25°C° 0 mm 4 m/s 759 mmHg 73%
    20:00 +23°C° 0 mm 5 m/s 759 mmHg 70%
    21:00 +23°C° 0 mm 5 m/s 759 mmHg 68%
    22:00 +22°C° 0 mm 6 m/s 760 mmHg 66%
    23:00 +22°C° 0 mm 6 m/s 759 mmHg 67%
    Voir plus